Location: Ferma
(41.9500°N, 44.5167°E)
Time: 13:48:14
(UTC+00:00)

SMAP - Pass Details

Date: 24 October 2021
Orbit: 681 x 683 km, 98.1° (Epoch: 07 December)

Event Time Altitude Azimuth Distance (km) Brightness Sun altitude
Rises 14:41:48 0° 175° (S) 3,031 6.5 -7.2°
Reaches altitude 10° 14:44:04 10° 179° (S) 2,120 5.7 -7.6°
Maximum altitude 14:48:39 60° 259° (W) 784 3.8 -8.4°
Drops below altitude 10° 14:53:16 10° 340° (NNW) 2,136 5.8 -9.3°
Sets 14:55:33 0° 344° (NNW) 3,056 6.5 -9.7°
